ASA458 KBOI-KSFO

Flight info

Callsign ASA458
Flight time 1h 16m
Altitude 34000
Route HYVAL REO LEGGS BDEGA4
Aircraft B38M/M-SDE1FGHILORVWXY/HB1

Departure

Time 2026-05-04 15:43
Airport Boise Air Terminal/Gowen Field (KBOI)

Arrival

Time 2026-05-04 17:00
Airport San Francisco International Airport (KSFO)
Time Latitude Longitude Altitude Speed Heading
2026-05-04 15:21 43.56774 -116.22413 2884 ft 0 kts 116°
2026-05-04 15:36 43.56780 -116.22429 2884 ft 3 kts 124°
2026-05-04 15:36 43.56793 -116.22447 2884 ft 3 kts 159°
2026-05-04 15:37 43.56808 -116.22448 2884 ft 2 kts 203°
2026-05-04 15:37 43.56814 -116.22444 2884 ft 0 kts 204°
2026-05-04 15:37 43.56815 -116.22444 2884 ft 0 kts 204°
2026-05-04 15:39 43.56811 -116.22446 2884 ft 3 kts 205°
2026-05-04 15:39 43.56716 -116.22441 2884 ft 12 kts 119°
2026-05-04 15:40 43.56674 -116.22318 2883 ft 16 kts 115°
2026-05-04 15:40 43.56620 -116.22161 2883 ft 20 kts 115°
2026-05-04 15:40 43.56556 -116.21974 2883 ft 23 kts 116°
2026-05-04 15:40 43.56481 -116.21758 2883 ft 27 kts 115°
2026-05-04 15:41 43.56396 -116.21507 2884 ft 30 kts 115°
2026-05-04 15:41 43.56305 -116.21240 2884 ft 31 kts 115°
2026-05-04 15:41 43.56211 -116.20967 2888 ft 31 kts 116°
2026-05-04 15:41 43.56142 -116.20868 2884 ft 13 kts 194°
2026-05-04 15:42 43.56056 -116.20919 2884 ft 15 kts 205°
2026-05-04 15:42 43.55977 -116.20973 2883 ft 11 kts 205°
2026-05-04 15:42 43.55912 -116.21032 2884 ft 12 kts 249°
2026-05-04 15:42 43.55938 -116.21141 2883 ft 16 kts 294°
2026-05-04 15:43 43.56088 -116.21579 2883 ft 92 kts 295°
2026-05-04 15:43 43.56474 -116.22709 2888 ft 165 kts 295°
2026-05-04 15:43 43.57007 -116.24275 3456 ft 186 kts 295°
2026-05-04 15:43 43.57489 -116.25935 4528 ft 188 kts 289°
2026-05-04 15:44 43.57980 -116.27769 4994 ft 221 kts 290°
2026-05-04 15:44 43.58554 -116.29868 5453 ft 250 kts 291°
2026-05-04 15:44 43.59128 -116.32132 6587 ft 255 kts 283°
2026-05-04 15:44 43.59117 -116.34664 7373 ft 274 kts 263°
2026-05-04 15:45 43.58834 -116.37326 8327 ft 284 kts 263°
2026-05-04 15:45 43.58558 -116.39124 9115 ft 286 kts 251°
2026-05-04 15:45 43.57520 -116.41432 10135 ft 292 kts 225°
2026-05-04 15:45 43.55889 -116.43198 10887 ft 307 kts 217°
2026-05-04 15:46 43.54235 -116.45161 11612 ft 319 kts 222°
2026-05-04 15:46 43.52546 -116.47227 12460 ft 327 kts 221°
2026-05-04 15:46 43.50827 -116.49300 13481 ft 330 kts 221°
2026-05-04 15:46 43.49078 -116.51388 14318 ft 336 kts 221°
2026-05-04 15:47 43.47294 -116.53504 15108 ft 341 kts 221°
2026-05-04 15:47 43.45476 -116.55651 15883 ft 347 kts 221°
2026-05-04 15:47 43.43624 -116.57836 16627 ft 353 kts 221°
2026-05-04 15:47 43.41743 -116.60050 17408 ft 358 kts 221°
2026-05-04 15:48 43.39830 -116.62302 18091 ft 365 kts 220°
2026-05-04 15:48 43.37892 -116.64579 18769 ft 369 kts 221°
2026-05-04 15:48 43.33954 -116.69203 20025 ft 378 kts 220°
2026-05-04 15:49 43.31938 -116.71568 20624 ft 383 kts 220°
2026-05-04 15:49 43.29902 -116.73951 21263 ft 387 kts 220°
2026-05-04 15:49 43.27846 -116.76357 21911 ft 390 kts 220°
2026-05-04 15:49 43.25765 -116.78791 22475 ft 395 kts 220°
2026-05-04 15:50 43.23666 -116.81242 23111 ft 399 kts 220°
2026-05-04 15:50 43.21538 -116.83724 23639 ft 403 kts 220°
2026-05-04 15:50 43.19388 -116.86230 24148 ft 407 kts 220°
2026-05-04 15:50 43.17219 -116.88755 24643 ft 411 kts 220°
2026-05-04 15:51 43.15060 -116.91267 25119 ft 414 kts 220°
2026-05-04 15:51 43.12974 -116.94012 25588 ft 418 kts 231°
2026-05-04 15:51 43.11200 -116.97172 26055 ft 420 kts 232°
2026-05-04 15:51 43.09383 -117.00333 26489 ft 425 kts 232°
2026-05-04 15:52 43.07551 -117.03523 26960 ft 428 kts 232°
2026-05-04 15:52 43.05705 -117.06736 27404 ft 431 kts 232°
2026-05-04 15:52 43.03841 -117.09977 27795 ft 436 kts 232°
2026-05-04 15:52 43.01956 -117.13251 28225 ft 440 kts 232°
2026-05-04 15:53 43.00056 -117.16549 28647 ft 443 kts 232°
2026-05-04 15:53 42.98145 -117.19861 29083 ft 446 kts 232°
2026-05-04 15:53 42.96214 -117.23205 29482 ft 450 kts 232°
2026-05-04 15:53 42.94269 -117.26568 29885 ft 453 kts 232°
2026-05-04 15:54 42.92309 -117.29954 30224 ft 456 kts 232°
2026-05-04 15:54 42.90338 -117.33355 30571 ft 459 kts 232°
2026-05-04 15:54 42.88349 -117.36783 30894 ft 462 kts 231°
2026-05-04 15:54 42.86351 -117.40223 31265 ft 464 kts 231°
2026-05-04 15:55 42.84344 -117.43673 31619 ft 466 kts 231°
2026-05-04 15:55 42.82325 -117.47141 31964 ft 468 kts 231°
2026-05-04 15:55 42.80297 -117.50620 32330 ft 470 kts 231°
2026-05-04 15:55 42.78261 -117.54108 32793 ft 469 kts 231°
2026-05-04 15:56 42.76260 -117.57530 33261 ft 468 kts 231°
2026-05-04 15:56 42.74234 -117.60995 33673 ft 469 kts 231°
2026-05-04 15:56 42.72194 -117.64478 33900 ft 470 kts 231°
2026-05-04 15:56 42.70163 -117.67942 33901 ft 467 kts 231°
2026-05-04 15:57 42.66114 -117.74835 33915 ft 466 kts 231°
2026-05-04 15:57 42.62067 -117.81711 33930 ft 466 kts 231°
2026-05-04 15:58 42.57730 -117.88220 33912 ft 464 kts 215°
2026-05-04 15:58 42.52612 -117.93594 33916 ft 466 kts 217°
2026-05-04 15:59 42.47497 -117.99007 33913 ft 466 kts 216°
2026-05-04 15:59 42.42377 -118.04391 33890 ft 466 kts 216°
2026-05-04 16:00 42.37279 -118.09739 33891 ft 466 kts 216°
2026-05-04 16:00 42.32161 -118.15097 33850 ft 465 kts 216°
2026-05-04 16:01 42.27047 -118.20440 33850 ft 465 kts 216°
2026-05-04 16:01 42.21934 -118.25771 33849 ft 466 kts 216°
2026-05-04 16:02 42.16795 -118.31116 33851 ft 466 kts 216°
2026-05-04 16:03 42.09098 -118.39104 33857 ft 464 kts 216°
2026-05-04 16:03 42.03973 -118.44409 33853 ft 464 kts 216°
2026-05-04 16:04 41.98847 -118.49700 33850 ft 464 kts 215°
2026-05-04 16:04 41.91188 -118.57589 33845 ft 464 kts 215°
2026-05-04 16:05 41.86052 -118.62866 33859 ft 465 kts 215°
2026-05-04 16:06 41.78331 -118.70778 33846 ft 465 kts 215°
2026-05-04 16:07 41.68026 -118.81300 33835 ft 466 kts 215°
2026-05-04 16:08 41.57691 -118.91807 33859 ft 467 kts 215°
2026-05-04 16:09 41.44833 -119.04821 33852 ft 465 kts 215°
2026-05-04 16:10 41.34518 -119.15212 33848 ft 465 kts 215°
2026-05-04 16:11 41.24204 -119.25561 33841 ft 462 kts 215°
2026-05-04 16:12 41.08760 -119.40978 33846 ft 463 kts 215°
2026-05-04 16:13 40.98481 -119.51188 33847 ft 463 kts 214°
2026-05-04 16:14 40.88159 -119.61400 33847 ft 464 kts 214°
2026-05-04 16:16 40.75248 -119.74116 33855 ft 464 kts 214°
2026-05-04 16:17 40.62292 -119.86812 33857 ft 466 kts 214°
2026-05-04 16:18 40.51878 -119.96973 33876 ft 466 kts 214°
2026-05-04 16:19 40.38825 -120.09652 33868 ft 467 kts 214°
2026-05-04 16:20 40.25742 -120.22297 33919 ft 469 kts 214°
2026-05-04 16:22 40.12565 -120.34969 33918 ft 470 kts 214°
2026-05-04 16:23 39.96722 -120.50125 33929 ft 470 kts 213°
2026-05-04 16:25 39.80911 -120.65158 33946 ft 469 kts 213°
2026-05-04 16:26 39.62626 -120.82444 33972 ft 460 kts 214°
2026-05-04 16:28 39.49664 -120.94626 33982 ft 460 kts 213°
2026-05-04 16:29 39.32262 -121.12095 34041 ft 452 kts 233°
2026-05-04 16:31 39.22760 -121.28368 34030 ft 455 kts 232°
2026-05-04 16:32 39.11362 -121.47896 34027 ft 455 kts 232°
2026-05-04 16:33 39.03774 -121.60831 34037 ft 453 kts 232°
2026-05-04 16:34 38.98723 -121.69412 34035 ft 452 kts 232°
2026-05-04 16:35 38.87293 -121.88747 34025 ft 453 kts 232°
2026-05-04 16:36 38.81561 -121.98400 34025 ft 454 kts 232°
2026-05-04 16:37 38.75811 -122.08053 34027 ft 454 kts 232°
2026-05-04 16:38 38.68175 -122.20829 33620 ft 456 kts 231°
2026-05-04 16:39 38.62250 -122.30708 31163 ft 471 kts 231°
2026-05-04 16:39 38.58215 -122.37427 29276 ft 484 kts 231°
2026-05-04 16:40 38.54015 -122.44156 27553 ft 476 kts 221°
2026-05-04 16:40 38.49056 -122.49368 26700 ft 455 kts 217°
2026-05-04 16:41 38.44169 -122.54438 25558 ft 451 kts 216°
2026-05-04 16:41 38.36911 -122.61918 23989 ft 444 kts 216°
2026-05-04 16:42 38.29836 -122.69191 22349 ft 422 kts 216°
2026-05-04 16:43 38.25299 -122.73718 21347 ft 408 kts 208°
2026-05-04 16:43 38.20026 -122.75412 20460 ft 384 kts 172°
2026-05-04 16:43 38.17402 -122.74965 20073 ft 380 kts 166°
2026-05-04 16:44 38.07221 -122.72306 18279 ft 370 kts 163°
2026-05-04 16:45 38.02238 -122.70876 17338 ft 364 kts 163°
2026-05-04 16:46 37.94911 -122.68758 16022 ft 355 kts 164°
2026-05-04 16:46 37.90189 -122.67127 15028 ft 349 kts 149°
2026-05-04 16:47 37.86367 -122.63447 14110 ft 343 kts 138°
2026-05-04 16:47 37.82665 -122.59592 13072 ft 346 kts 138°
2026-05-04 16:48 37.77273 -122.53895 11798 ft 321 kts 139°
2026-05-04 16:48 37.75585 -122.52109 11464 ft 311 kts 139°
2026-05-04 16:49 37.72373 -122.48704 10973 ft 293 kts 138°
2026-05-04 16:49 37.69276 -122.45407 10998 ft 291 kts 138°
2026-05-04 16:50 37.66183 -122.42121 11038 ft 290 kts 138°
2026-05-04 16:50 37.63096 -122.38849 10978 ft 289 kts 139°
2026-05-04 16:51 37.59788 -122.35899 10965 ft 294 kts 151°
2026-05-04 16:51 37.57954 -122.34703 10489 ft 301 kts 152°
2026-05-04 16:51 37.54163 -122.32252 9383 ft 311 kts 152°
2026-05-04 16:52 37.50477 -122.29559 8303 ft 304 kts 133°
2026-05-04 16:52 37.49339 -122.27364 7855 ft 297 kts 117°
2026-05-04 16:53 37.47590 -122.22857 7026 ft 276 kts 117°
2026-05-04 16:53 37.45595 -122.16360 5518 ft 269 kts 85°
2026-05-04 16:54 37.46256 -122.14185 4936 ft 271 kts 51°
2026-05-04 16:55 37.52548 -122.15382 3464 ft 254 kts 307°
2026-05-04 16:55 37.54461 -122.19074 2886 ft 255 kts 296°
2026-05-04 16:56 37.56001 -122.22967 2291 ft 236 kts 296°
2026-05-04 16:56 37.57947 -122.27592 1502 ft 156 kts 296°
2026-05-04 16:57 37.58426 -122.28729 1245 ft 142 kts 296°
2026-05-04 16:57 37.59366 -122.31004 872 ft 145 kts 297°
2026-05-04 16:58 37.60793 -122.34373 305 ft 148 kts 299°
2026-05-04 16:58 37.61278 -122.35538 106 ft 152 kts 298°
2026-05-04 16:59 37.62053 -122.37383 25 ft 62 kts 298°
2026-05-04 17:00 37.61850 -122.37896 28 ft 17 kts 153°
2026-05-04 17:00 37.61437 -122.38023 24 ft 26 kts 207°
2026-05-04 17:01 37.61091 -122.38252 24 ft 31 kts 208°
2026-05-04 17:01 37.60871 -122.38417 27 ft 8 kts 254°
2026-05-04 17:02 37.60916 -122.38639 24 ft 18 kts 297°
2026-05-04 17:02 37.61051 -122.38815 24 ft 14 kts 25°
2026-05-04 17:03 37.61145 -122.38753 24 ft 17 kts 28°
2026-05-04 17:03 37.61255 -122.38680 26 ft 14 kts 27°
2026-05-04 17:03 37.61329 -122.38684 26 ft 4 kts 347°
2026-05-04 17:04 37.61374 -122.38656 26 ft 2 kts 30°
2026-05-04 17:04 37.61380 -122.38651 28 ft 0 kts 30°